Terminal Aerodrome Forecast
Issued by NWS Spokane, WA

Home | Current Version | Previous Version | Text Only | Print | Product List | Glossary On
Versions: 1 2 3 4 5 6 7 8 9 10 11 12 13 14 15 16 17 18 19 20 21 22 23 24 25 26 27 28 29 30 31 32 33 34 35 36 37 38 39 40 41 42 43 44 45 46 47
000
FTUS46 KOTX 262342 CCA
TAFEAT
TAF COR
KEAT 262342Z 2700/2724 VRB03KT P6SM SCT004 BKN200
     FM270400 31003KT 3SM BR OVC003
     FM270800 VRB02KT 1SM BR OVC002
     FM272000 VRB03KT 6SM BR OVC006=

USA.gov is the U.S. government's official web portal to all federal, state and local government web resources and services.